Change the Weather History Date:

Saturday, July 12, 2014

  Actual Average Record
Temperature  
Mean Temperature 84 °F -  
Max Temperature 90 °F 93 °F 97 °F (1969)
Min Temperature 79 °F 73 °F 66 °F (1974)
Cooling Degree Days 19    
Growing Degree Days 34 (Base 50)    
Moisture  
Dew Point 75 °F    
Average Humidity 74    
Maximum Humidity 84    
Minimum Humidity 65    
Precipitation  
Precipitation 0.00 in - - ()
Sea Level Pressure  
Sea Level Pressure 30.10 in    
Wind  
Wind Speed 9 mph (East)    
Max Wind Speed 14 mph    
Max Gust Speed -    
Visibility 10 miles    
Events Rain , Thunderstorm    
Averages and records for this station are not official NWS values.
T = Trace of Precipitation, MM = Missing Value Source: NWS Daily Summary

Daily Weather History Graph

Daily Weather History Graph

Search for Another Location

Airport or City:

Trip Planner

Search our weather history database for the weather conditions in past years. The results will help you decide how hot, cold, wet, or windy it might be!

Date:

Astronomy

Jul. 12, 2014 Rise Set
Actual Time 6:36 AM EDT 8:15 PM EDT
Civil Twilight 6:10 AM EDT 8:41 PM EDT
Nautical Twilight 5:39 AM EDT 9:12 PM EDT
Astronomical Twilight 5:07 AM EDT 9:44 PM EDT
Moon 8:27 PM EDT (7/12) 6:45 AM EDT (7/12)
Length of Visible Light 14h 31m
Length of Day
13h 39m
Full, 100% of the Moon is Illuminated
Jul 12
Full
Jul 18
Last Quarter
Jul 26
New
Aug 3
First Quarter
Aug 10
Full

Hourly Weather History & Observations

Time (EDT) Temp. Heat Index Dew Point Humidity Pressure Visibility Wind Dir Wind Speed Gust Speed Precip Events Conditions
12:53 AM 84.0 °F 91.9 °F 75.0 °F 74% 30.13 in 10.0 mi ESE 8.1 mph - N/A   Unknown
1:53 AM 82.9 °F 90.2 °F 75.0 °F 77% 30.12 in 10.0 mi East 8.1 mph - N/A   Unknown
2:53 AM 82.9 °F 90.2 °F 75.0 °F 77% 30.10 in 10.0 mi ESE 8.1 mph - N/A   Unknown
3:53 AM 82.9 °F 90.2 °F 75.0 °F 77% 30.09 in 10.0 mi East 9.2 mph - N/A   Unknown
4:36 AM 81.0 °F 85.8 °F 73.0 °F 77% 30.09 in 10.0 mi ESE 11.5 mph - N/A Thunderstorm Unknown
4:53 AM 82.0 °F 87.4 °F 73.0 °F 74% 30.09 in 10.0 mi ESE 9.2 mph - N/A   Unknown
5:53 AM 82.0 °F 87.4 °F 73.0 °F 74% 30.09 in 10.0 mi East 8.1 mph - N/A   Unknown
6:53 AM 82.0 °F 88.6 °F 75.0 °F 79% 30.08 in 10.0 mi East 6.9 mph - N/A   Unknown
7:53 AM 84.0 °F 92.6 °F 75.9 °F 76% 30.10 in 10.0 mi ESE 10.4 mph - N/A   Unknown
8:01 AM 84.0 °F 92.6 °F 75.9 °F 76% 30.09 in 10.0 mi ESE 11.5 mph - N/A   Mostly Cloudy
8:53 AM 84.0 °F 91.9 °F 75.0 °F 74% 30.11 in 10.0 mi ESE 12.7 mph - N/A   Unknown
9:53 AM 86.0 °F 95.1 °F 75.0 °F 70% 30.12 in 10.0 mi ESE 9.2 mph - N/A   Scattered Clouds
10:53 AM 88.0 °F 98.5 °F 75.9 °F 67% 30.14 in 10.0 mi SE 10.4 mph - N/A   Scattered Clouds
11:53 AM 87.1 °F 95.4 °F 73.9 °F 65% 30.13 in 10.0 mi ESE 9.2 mph - 0.00 in   Mostly Cloudy
1:53 PM 89.1 °F 100.2 °F 75.9 °F 65% 30.11 in 10.0 mi East 11.5 mph - N/A   Scattered Clouds
2:53 PM 89.1 °F 100.2 °F 75.9 °F 65% 30.10 in 10.0 mi ESE 12.7 mph - N/A   Scattered Clouds
3:53 PM 88.0 °F 98.5 °F 75.9 °F 67% 30.08 in 10.0 mi East 13.8 mph - N/A   Scattered Clouds
4:53 PM 88.0 °F 97.5 °F 75.0 °F 65% 30.08 in 10.0 mi ESE 9.2 mph - N/A   Scattered Clouds
5:53 PM 86.0 °F 95.1 °F 75.0 °F 70% 30.09 in 10.0 mi ESE 10.4 mph - N/A   Unknown
6:53 PM 84.9 °F 92.1 °F 73.9 °F 69% 30.09 in 10.0 mi ESE 8.1 mph - N/A   Unknown
7:53 PM 84.9 °F 93.3 °F 75.0 °F 72% 30.11 in 10.0 mi East 4.6 mph - N/A   Scattered Clouds
8:45 PM 80.1 °F 84.2 °F 73.0 °F 79% 30.12 in 10.0 mi NW 13.8 mph - N/A   Scattered Clouds
8:53 PM 80.1 °F 84.2 °F 73.0 °F 79% 30.12 in 10.0 mi NW 13.8 mph - N/A   Scattered Clouds
9:53 PM 79.0 °F - 73.0 °F 82% 30.11 in 10.0 mi North 5.8 mph - N/A   Unknown
10:53 PM 79.0 °F - 73.9 °F 84% 30.11 in 10.0 mi NE 4.6 mph - N/A   Unknown
11:53 PM 81.0 °F 86.2 °F 73.9 °F 79% 30.11 in 6.0 mi ESE 8.1 mph - 0.00 in Rain Light Rain